Delta, CO

4:30 PM MDT on August 30, 2016 (GMT -0600)
Delta

Weather History for KAJZ - March, 2014

Change the Weather History Date:

Saturday, March 8, 2014

  Actual Average (KMTJ) Record (KMTJ)
Temperature  
Mean Temperature 44 °F 39 °F  
Max Temperature 56 °F 52 °F 62 °F (2004)
Min Temperature 31 °F 26 °F 10 °F (1998)
Degree Days  
Heating Degree Days 22 26  
Month to date heating degree days 217  
Since 1 July heating degree days 4932  
Cooling Degree Days 0 0  
Month to date cooling degree days 0  
Year to date cooling degree days 0  
Moisture  
Dew Point 27 °F    
Average Humidity 60    
Maximum Humidity 89    
Minimum Humidity 25    
Precipitation  
Precipitation 0.00 in 0.03 in 0.38 in (2002)
Month to date precipitation 0.27  
Year to date precipitation 1.50  
Sea Level Pressure  
Sea Level Pressure 30.29 in    
Wind  
Wind Speed 4 mph (NNE)    
Max Wind Speed 10 mph    
Max Gust Speed 9 mph    
Visibility 10 miles    
Events      
T = Trace of Precipitation, MM = Missing Value Source: NWS Daily Summary

Daily Weather History Graph

Daily Weather History Graph

Search for Another Location

Airport or City:

Trip Planner

Search our weather history database for the weather conditions in past years. The results will help you decide how hot, cold, wet, or windy it might be!

Date:

Astronomy

Mar. 08, 2014 Rise Set
Actual Time 6:34 AM MST 6:12 PM MST
Civil Twilight 6:07 AM MST 6:38 PM MST
Nautical Twilight 5:36 AM MST 7:09 PM MST
Astronomical Twilight 5:05 AM MST 7:40 PM MST
Moon 11:21 AM MST (3/8) 1:09 AM MST (3/8)
Length of Visible Light 12h 31m
Length of Day
11h 38m
First Quarter, 52% of the Moon is Illuminated
Mar 8
First Quarter
Mar 16
Full
Mar 23
Last Quarter
Mar 30
New
Apr 7
First Quarter

Hourly Weather History & Observations

Time (MST) Temp. Windchill Dew Point Humidity Pressure Visibility Wind Dir Wind Speed Gust Speed Precip Events Conditions
12:15 AM 35.6 °F 29.9 °F 30.9 °F 83% 30.11 in 10.0 mi NNE 6.9 mph - N/A   Clear
12:35 AM 34.9 °F 32.0 °F 30.7 °F 85% 30.13 in 10.0 mi NNE 3.5 mph - N/A   Clear
12:55 AM 35.4 °F 31.5 °F 30.6 °F 82% 30.13 in 10.0 mi NNE 4.6 mph - N/A   Clear
1:15 AM 34.5 °F 28.6 °F 30.4 °F 85% 30.14 in 10.0 mi NE 6.9 mph - N/A   Clear
1:35 AM 34.3 °F 31.4 °F 30.0 °F 84% 30.14 in 10.0 mi NNE 3.5 mph - N/A   Clear
1:55 AM 33.8 °F - 30.4 °F 87% 30.15 in 10.0 mi Calm Calm - N/A   Clear
2:15 AM 33.6 °F 30.6 °F 29.8 °F 86% 30.15 in 10.0 mi NE 3.5 mph - N/A   Clear
2:35 AM 32.9 °F - 29.8 °F 88% 30.16 in 10.0 mi Calm Calm - N/A   Clear
2:55 AM 32.2 °F - 29.1 °F 88% 30.16 in 10.0 mi Calm Calm - N/A   Clear
3:15 AM 32.0 °F - 28.6 °F 87% 30.17 in 10.0 mi Calm Calm - N/A   Clear
3:35 AM 31.8 °F - 28.6 °F 88% 30.18 in 10.0 mi Calm Calm - N/A   Clear
3:55 AM 32.4 °F - 29.3 °F 88% 30.18 in 10.0 mi Calm Calm - N/A   Clear
4:15 AM 32.2 °F - 29.1 °F 88% 30.19 in 10.0 mi Calm Calm - N/A   Clear
4:55 AM 31.8 °F 25.4 °F 28.0 °F 86% 30.21 in 10.0 mi NNE 6.9 mph - N/A   Clear
5:15 AM 31.1 °F 27.7 °F 27.7 °F 87% 30.22 in 10.0 mi North 3.5 mph - N/A   Clear
5:35 AM 32.0 °F 27.5 °F 28.4 °F 87% 30.23 in 10.0 mi North 4.6 mph - N/A   Clear
5:55 AM 32.5 °F 28.1 °F 28.2 °F 84% 30.23 in 10.0 mi NE 4.6 mph - N/A   Clear
6:15 AM 31.1 °F 27.7 °F 27.7 °F 87% 30.24 in 10.0 mi NNW 3.5 mph - N/A   Clear
6:35 AM 31.1 °F - 28.2 °F 89% 30.25 in 10.0 mi Calm Calm - N/A   Clear
6:55 AM 31.3 °F - 27.3 °F 85% 30.25 in 10.0 mi Calm Calm - N/A   Clear
7:15 AM 32.0 °F - 28.8 °F 88% 30.26 in 10.0 mi Calm Calm - N/A   Clear
7:35 AM 33.4 °F - 30.0 °F 87% 30.28 in 10.0 mi Calm Calm - N/A   Clear
7:55 AM 33.6 °F - 30.2 °F 87% 30.29 in 10.0 mi Calm Calm - N/A   Clear
8:35 AM 35.6 °F - 30.9 °F 83% 30.30 in 10.0 mi Calm Calm - N/A   Clear
9:55 AM 41.0 °F - 33.1 °F 73% 30.33 in 10.0 mi Calm Calm - N/A   Clear
10:55 AM 45.0 °F - 29.5 °F 55% 30.34 in 10.0 mi Calm Calm - N/A   Clear
11:35 AM 47.8 °F - 29.3 °F 49% 30.34 in 10.0 mi Calm Calm - N/A   Clear
11:55 AM 49.1 °F - 29.1 °F 46% 30.33 in 10.0 mi Calm Calm - N/A   Clear
12:15 PM 49.5 °F - 26.8 °F 41% 30.33 in 10.0 mi Calm Calm - N/A   Clear
12:35 PM 50.7 °F - 27.7 °F 41% 30.32 in 10.0 mi SW 4.6 mph - N/A   Clear
12:55 PM 51.1 °F - 27.5 °F 40% 30.31 in 10.0 mi South 3.5 mph - N/A   Clear
1:35 PM 52.7 °F - 23.7 °F 32% 30.30 in 10.0 mi Calm Calm - N/A   Clear
1:55 PM 54.1 °F - 24.6 °F 32% 30.30 in 10.0 mi SSW 6.9 mph - N/A   Clear
2:15 PM 54.3 °F - 24.1 °F 31% 30.30 in 10.0 mi WSW 4.6 mph - N/A   Clear
2:35 PM 53.8 °F - 23.4 °F 31% 30.29 in 10.0 mi South 3.5 mph - N/A   Clear
2:55 PM 54.9 °F - 22.3 °F 28% 30.29 in 10.0 mi SSE 3.5 mph - N/A   Clear
3:15 PM 55.6 °F - 22.3 °F 27% 30.29 in 10.0 mi WSW 5.8 mph - N/A   Clear
3:35 PM 55.6 °F - 21.9 °F 27% 30.28 in 10.0 mi South 10.4 mph - N/A   Clear
3:55 PM 56.1 °F - 21.4 °F 26% 30.28 in 10.0 mi SW 3.5 mph 9.2 mph N/A   Clear
4:15 PM 55.6 °F - 21.0 °F 26% 30.29 in 10.0 mi WSW 5.8 mph - N/A   Clear
4:35 PM 55.8 °F - 20.3 °F 25% 30.30 in 10.0 mi SW 4.6 mph - N/A   Clear
4:55 PM 55.8 °F - 19.8 °F 25% 30.29 in 10.0 mi SSW 10.4 mph - N/A   Clear
5:15 PM 55.4 °F - 19.8 °F 25% 30.30 in 10.0 mi SW 10.4 mph - N/A   Clear
5:35 PM 54.7 °F - 20.1 °F 26% 30.30 in 10.0 mi SW 10.4 mph - N/A   Clear
5:55 PM 53.6 °F - 19.9 °F 27% 30.30 in 10.0 mi SW 9.2 mph - N/A   Clear
6:15 PM 52.0 °F - 20.8 °F 30% 30.31 in 10.0 mi SW 8.1 mph - N/A   Clear
6:35 PM 50.4 °F - 21.6 °F 32% 30.31 in 10.0 mi SSW 5.8 mph - N/A   Clear
6:55 PM 48.9 °F - 21.6 °F 34% 30.32 in 10.0 mi Calm Calm - N/A   Clear
7:15 PM 49.5 °F - 21.9 °F 34% 30.33 in 10.0 mi NNE 3.5 mph - N/A   Clear
7:35 PM 44.2 °F 38.8 °F 27.0 °F 51% 30.34 in 10.0 mi NNE 10.4 mph - N/A   Clear
7:55 PM 43.7 °F 38.1 °F 26.4 °F 51% 30.35 in 10.0 mi NNE 10.4 mph - N/A   Clear
8:15 PM 43.0 °F 38.2 °F 26.2 °F 52% 30.37 in 10.0 mi North 8.1 mph - N/A   Clear
8:35 PM 42.8 °F 39.3 °F 25.7 °F 51% 30.37 in 10.0 mi North 5.8 mph - N/A   Clear
8:55 PM 42.3 °F 37.9 °F 25.5 °F 52% 30.38 in 10.0 mi NE 6.9 mph - N/A   Clear
9:15 PM 41.0 °F - 26.4 °F 56% 30.39 in 10.0 mi Calm Calm - N/A   Clear
9:35 PM 41.0 °F 35.8 °F 25.7 °F 55% 30.41 in 10.0 mi ENE 8.1 mph - N/A   Clear
9:55 PM 40.6 °F 35.4 °F 26.6 °F 57% 30.41 in 10.0 mi ENE 8.1 mph - N/A   Clear
10:15 PM 39.7 °F 34.9 °F 28.4 °F 64% 30.41 in 10.0 mi East 6.9 mph - N/A   Clear
10:35 PM 37.6 °F 34.0 °F 28.4 °F 69% 30.42 in 10.0 mi East 4.6 mph - N/A   Clear
10:55 PM 37.8 °F 34.2 °F 26.6 °F 64% 30.42 in 10.0 mi NNE 4.6 mph - N/A   Clear
11:15 PM 37.2 °F 31.9 °F 27.3 °F 67% 30.42 in 10.0 mi East 6.9 mph - N/A   Clear
11:35 PM 36.9 °F 29.6 °F 27.1 °F 68% 30.42 in 10.0 mi NE 10.4 mph - N/A   Clear
11:55 PM 36.7 °F 32.0 °F 26.1 °F 65% 30.42 in 10.0 mi NE 5.8 mph - N/A   Clear